Beaufort, NC

5:46 AM EDT on April 27, 2017 (GMT -0400)
Smith

Weather History for KMRH - October, 2013

Change the Weather History Date:

Saturday, October 12, 2013

  Actual Average Record
Temperature  
Mean Temperature 66 °F -  
Max Temperature 70 °F 76 °F 88 °F (1990)
Min Temperature 62 °F 56 °F 43 °F (1992)
Growing Degree Days 16 (Base 50)    
Moisture  
Dew Point 64 °F    
Average Humidity 96    
Maximum Humidity 100    
Minimum Humidity 83    
Precipitation  
Precipitation 0.00 in - - ()
Sea Level Pressure  
Sea Level Pressure 29.98 in    
Wind  
Wind Speed 5 mph (NW)    
Max Wind Speed 9 mph    
Max Gust Speed -    
Visibility 10 miles    
Events      
Averages and records for this station are not official NWS values.
T = Trace of Precipitation, MM = Missing Value Source: NWS Daily Summary

Daily Weather History Graph

Daily Weather History Graph

Search for Another Location

Airport or City:

Trip Planner

Search our weather history database for the weather conditions in past years. The results will help you decide how hot, cold, wet, or windy it might be!

Date:

Astronomy

Oct. 12, 2013 Rise Set
Actual Time 7:10 AM EDT 6:35 PM EDT
Civil Twilight 6:44 AM EDT 7:00 PM EDT
Nautical Twilight 6:15 AM EDT 7:30 PM EDT
Astronomical Twilight 5:46 AM EDT 7:59 PM EDT
Moon 2:29 PM EDT (10/12) 12:26 AM EDT (10/12)
Length of Visible Light 12h 16m
Length of Day
11h 25m
First Quarter, 58% of the Moon is Illuminated
Oct 12
First Quarter
Oct 18
Full
Oct 26
Last Quarter
Nov 3
New
Nov 10
First Quarter

Hourly Weather History & Observations

Time (EDT) Temp. Dew Point Humidity Pressure Visibility Wind Dir Wind Speed Gust Speed Precip Events Conditions
12:58 AM 63.0 °F 62.1 °F 97% 29.94 in 10.0 mi NW 6.9 mph - N/A   Overcast
1:39 AM 62.6 °F 62.6 °F 100% 29.93 in 10.0 mi NNW 4.6 mph - N/A   Overcast
1:54 AM 62.6 °F 62.6 °F 100% 29.93 in 10.0 mi NW 3.5 mph - N/A   Overcast
1:58 AM 63.0 °F 62.1 °F 97% 29.94 in 10.0 mi WNW 4.6 mph - N/A   Overcast
2:58 AM 63.0 °F 63.0 °F 100% 29.93 in 10.0 mi WNW 4.6 mph - N/A   Overcast
3:27 AM 62.6 °F 62.6 °F 100% 29.93 in 10.0 mi West 5.8 mph - N/A   Overcast
3:58 AM 63.0 °F 63.0 °F 100% 29.93 in 10.0 mi WNW 5.8 mph - N/A   Overcast
4:13 AM 62.6 °F 62.6 °F 100% 29.93 in 10.0 mi WNW 5.8 mph - N/A   Overcast
4:26 AM 62.6 °F 62.6 °F 100% 29.93 in 10.0 mi WNW 6.9 mph - N/A   Overcast
4:48 AM 62.6 °F 62.6 °F 100% 29.94 in 10.0 mi WNW 5.8 mph - N/A   Overcast
4:58 AM 63.0 °F 63.0 °F 100% 29.94 in 9.0 mi WNW 6.9 mph - N/A   Overcast
5:18 AM 62.6 °F 62.6 °F 100% 29.94 in 9.0 mi WNW 6.9 mph - N/A   Overcast
5:58 AM 63.0 °F 62.1 °F 97% 29.95 in 10.0 mi NW 9.2 mph - N/A   Overcast
6:10 AM 62.6 °F 62.6 °F 100% 29.95 in 10.0 mi NW 8.1 mph - N/A   Overcast
6:18 AM 62.6 °F 62.6 °F 100% 29.95 in 10.0 mi NNW 9.2 mph - N/A   Overcast
6:58 AM 63.0 °F 63.0 °F 100% 29.96 in 10.0 mi NW 5.8 mph - N/A   Overcast
7:58 AM 63.0 °F 63.0 °F 100% 29.98 in 8.0 mi West 4.6 mph - N/A   Overcast
8:58 AM 63.0 °F 63.0 °F 100% 29.99 in 7.0 mi NNW 5.8 mph - N/A   Overcast
9:58 AM 63.0 °F 63.0 °F 100% 30.00 in 6.0 mi WNW 5.8 mph - N/A   Overcast
10:58 AM 66.0 °F 63.0 °F 90% 29.99 in 9.0 mi NNW 4.6 mph - N/A   Overcast
11:33 AM 66.2 °F 62.6 °F 88% 29.99 in 10.0 mi NW 5.8 mph - N/A   Overcast
11:58 AM 66.9 °F 63.0 °F 87% 30.00 in 10.0 mi NNW 4.6 mph - N/A   Overcast
12:58 PM 66.9 °F 63.0 °F 87% 30.00 in 10.0 mi Calm Calm - N/A   Overcast
1:58 PM 68.0 °F 64.0 °F 87% 29.98 in 10.0 mi Calm Calm - N/A   Overcast
2:16 PM 69.8 °F 64.4 °F 83% 29.98 in 10.0 mi NNW 3.5 mph - N/A   Overcast
2:58 PM 68.0 °F 64.0 °F 87% 29.98 in 10.0 mi NW 4.6 mph - N/A   Overcast
3:58 PM 69.1 °F 64.0 °F 84% 29.97 in 10.0 mi WNW 4.6 mph - N/A   Overcast
4:58 PM 69.1 °F 64.0 °F 84% 29.98 in 10.0 mi NNW 6.9 mph - N/A   Overcast
5:58 PM 68.0 °F 64.9 °F 90% 30.00 in 10.0 mi NW 8.1 mph - N/A   Overcast
6:58 PM 66.9 °F 64.9 °F 93% 30.01 in 8.0 mi North 5.8 mph - N/A   Overcast
7:58 PM 66.0 °F 64.9 °F 96% 30.02 in 10.0 mi North 4.6 mph - N/A   Overcast
8:46 PM 66.2 °F 64.4 °F 94% 30.02 in 10.0 mi NW 4.6 mph - N/A   Overcast
8:58 PM 66.9 °F 64.9 °F 93% 30.02 in 10.0 mi NW 5.8 mph - N/A   Overcast
9:13 PM 66.2 °F 64.4 °F 94% 30.02 in 10.0 mi NW 5.8 mph - N/A   Overcast
9:54 PM 66.2 °F 66.2 °F 100% 30.02 in 10.0 mi NW 3.5 mph - N/A   Overcast
9:58 PM 66.9 °F 66.0 °F 97% 30.03 in 10.0 mi Calm Calm - N/A   Overcast
10:20 PM 66.2 °F 66.2 °F 100% 30.03 in 10.0 mi NNW 4.6 mph - N/A   Overcast
10:42 PM 66.2 °F 66.2 °F 100% 30.03 in 10.0 mi Calm Calm - N/A   Overcast
10:55 PM 66.2 °F 66.2 °F 100% 30.03 in 10.0 mi Calm Calm - N/A   Overcast
10:58 PM 66.9 °F 66.0 °F 97% 30.03 in 10.0 mi Calm Calm - N/A   Overcast
11:18 PM 66.2 °F 66.2 °F 100% 30.03 in 9.0 mi Calm Calm - N/A   Overcast
11:58 PM 66.9 °F 66.0 °F 97% 30.03 in 9.0 mi North 4.6 mph - N/A   Overcast